Погода в Пилесево

Россия / Республика Мордовия     54°42′44″N   45°56′41″E
темп.,
°C
ветер,
м/с
пор.,
м/с
влажн.,
%
обл.,
%
осадки,
мм/ч
давл.,
гПа
погр.,
м
8 августа, пн
пн800:00+19юв22615 0.0 101911
03:00+18юв116456 0.0 102011
06:00+20ююв116733 0.0 102013
09:00+25юв11514 0.0 1020387
12:00+28юз11410 0.0 10201564
15:00+29зюз213637 0.0 10192349
18:00+27юз114717 0.0 101917
21:00+22в005148 0.0 102011
9 августа, вт
вт900:00+20ююв115737 0.0 102011
03:00+19юз116092 0.0 102011
06:00+20вюв006257 0.0 102011
09:00+25ююв11495 0.0 1020386
12:00+29ю21395 0.0 10201294
15:00+30юз11344 0.0 10192524
18:00+27юз11464 0.0 101815
21:00+21ссв226359 0.0 101923
10 августа, ср
ср1000:00+20ююв1165100 0.0 101811
03:00+17св2484100 0.0 101969
06:00+19юв2474100 0.0 1018110
09:00+23юз1257100 0.0 1018437
12:00+26с0150100 0.0 1018820
15:00+24с3362100 0.0 1018446
18:00+22зсз3672100 0.0 1019367
21:00+18зсз389199 0.0 1019224
11 августа, чт
чт1100:00+18сз3881100 0.0 1019308
03:00+14сз378876 0.0 1020169
06:00+13сз49820 0.0 1022315
09:00+18с57640 0.0 1022838
12:00+21с684522 0.0 10231449
15:00+22с56421 0.0 10231749
18:00+21ссз23540 0.0 102369
21:00+16ссз23700 0.0 102355
12 августа, пт
пт1200:00+14сз117231 0.0 102411
03:00+14з227398 0.0 102412
06:00+15зюз257313 0.0 1024128
09:00+20зсз455573 0.0 1024612
12:00+24зсз564117 0.0 10231728
15:00+25сз56405 0.0 10221867
18:00+22сз35550 0.0 1022121
21:00+18з22660 0.0 102211